COSMOS 1275 DEB, 12731

Orbit data source: Space-Track

COSMOS 1275 DEB, 12731 is space debris in LEO originally from a launch on Thu, 04 Jun 1981 UTC launched from the Plesetsk Missile And Space Complex (PKMTR). Debris objects in space refer to the collection of defunct objects orbiting the Earth. Examples of debris include non-operational satellites, rocket bodies, and fragments generated from explosions, collisions, or faulty payload assembly.

Loading next visibility...
Identifier
12731, 1981-053BY
Orbit
LEO
Country
Flag of CISCIS
Related business
Manufacturer
Unknown
Mission
Spacecraft
Bus & Motor
Unknown
Mass
Unknown
Launch date (UTC)
1981-06-04 (45 years ago)
Launch vehicle
Unknown
Launch site
Plesetsk Missile And Space Complex (PKMTR)
Object type
Payload
Rocket body
Debris
Shape & HBR
Unknown shape, 0.1 m
Radar Cross Section
Medium (>0.1 m² and <1 m²)

Expand to show TLE details & history
Last TLE update: 15 hours ago

TLE from 15 hours ago
0 COSMOS 1275 DEB
1 12731U 81053BY  26196.02424784  .00000226  00000-0  19841-3 0  9992
2 12731  82.9350 206.8819 0084195 116.6953 273.2621 13.79490041254928
Epoch: 2026-07-15T00:34Z
TLE epoch observation values (Epoch: 2026-07-15T00:34:55.013Z)
Latitude
28.79772°
Longitude
-90.8472°
Altitude
966.26 km
Speed
7.373 km/s
True Right ascension
14h 03m 04s
True Declination
28° 39' 25"
Sunlit
Object was in daylight at epoch
Visualization orbit readout
Latitude
Unknown
Longitude
Unknown
Altitude
Unknown
Speed
Unknown
Apparent Right ascension
Unknown
Apparent Declination
Unknown
Sunlit
N/A
Visualization observer readout
Local Sidereal Time
04:32:51
Azimuth
Unknown
Elevation
Unknown
Doppler factor
Unknown
Orbital elements
Apogee altitude
1,024.646 km
Perigee altitude
901.031 km
Semi-major axis
7,340.976 km
Eccentricity
0.00842
Inclination
82.935°
RAAN
206.8819°
Arg. of periapsis
116.6953°
True anomaly
272.29833°
Mean anomaly
273.2621°
Eccentric anomaly
272.78027°
Mean motion
3.45074 °/min
Orbital period
104.33 mins
BSTAR
0.00019841
Loading maneuver chart data...
Computing Atmospheric mass density...
Loading historical data...
Loading historical data...
Loading historical data...
Loading historical data...
Loading historical data...
Loading historical data...
Loading historical data...

Documentation

Showing up to 5 results
|